AUA388 LFML-LOWW

Flight info

Callsign AUA388
Flight time 1h 26m
Altitude 36000
Route NASIK P856 RAPED DCT PIGOS DCT EKSID DCT NOSTA DCT EGHIN DCT ARALD/N0449F370 DCT ABTAN ABTAN2W
Aircraft A320/M-SDE3FGHIRWY/LB1

Departure

Time 2026-05-07 17:14
Airport Marseille Provence Airport (LFML)

Arrival

Time 2026-05-07 18:41
Airport Vienna International Airport (LOWW)
Time Latitude Longitude Altitude Speed Heading
2026-05-07 16:29 43.43971 5.22203 46 ft 0 kts 62°
2026-05-07 16:33 43.43977 5.22192 46 ft 0 kts 59°
2026-05-07 17:04 43.43972 5.22180 42 ft 4 kts 59°
2026-05-07 17:05 43.43961 5.22154 44 ft 4 kts 62°
2026-05-07 17:05 43.43951 5.22121 45 ft 4 kts 82°
2026-05-07 17:05 43.43953 5.22088 45 ft 3 kts 131°
2026-05-07 17:05 43.43956 5.22084 45 ft 0 kts 135°
2026-05-07 17:07 43.43949 5.22093 45 ft 4 kts 133°
2026-05-07 17:07 43.43930 5.22122 46 ft 3 kts 134°
2026-05-07 17:08 43.43908 5.22150 46 ft 6 kts 147°
2026-05-07 17:08 43.43855 5.22125 44 ft 12 kts 222°
2026-05-07 17:08 43.43791 5.22036 45 ft 14 kts 238°
2026-05-07 17:08 43.43821 5.21928 43 ft 13 kts 313°
2026-05-07 17:09 43.43881 5.21843 44 ft 12 kts 314°
2026-05-07 17:09 43.43937 5.21762 42 ft 12 kts 314°
2026-05-07 17:09 43.43979 5.21674 41 ft 10 kts 275°
2026-05-07 17:09 43.43944 5.21593 37 ft 11 kts 228°
2026-05-07 17:10 43.43939 5.21469 29 ft 17 kts 314°
2026-05-07 17:10 43.44026 5.21353 27 ft 18 kts 308°
2026-05-07 17:10 43.44113 5.21212 24 ft 21 kts 314°
2026-05-07 17:10 43.44217 5.21064 22 ft 23 kts 313°
2026-05-07 17:11 43.44306 5.20894 20 ft 21 kts 301°
2026-05-07 17:11 43.44393 5.20748 21 ft 20 kts 313°
2026-05-07 17:11 43.44493 5.20603 19 ft 22 kts 314°
2026-05-07 17:11 43.44591 5.20462 18 ft 19 kts 314°
2026-05-07 17:12 43.44668 5.20350 19 ft 10 kts 308°
2026-05-07 17:12 43.44661 5.20272 18 ft 7 kts 233°
2026-05-07 17:12 43.44634 5.20240 19 ft 3 kts 217°
2026-05-07 17:12 43.44621 5.20227 19 ft 2 kts 213°
2026-05-07 17:13 43.44599 5.20207 19 ft 4 kts 213°
2026-05-07 17:13 43.44573 5.20219 22 ft 6 kts 132°
2026-05-07 17:13 43.44475 5.20359 22 ft 52 kts 134°
2026-05-07 17:13 43.44059 5.20952 28 ft 117 kts 134°
2026-05-07 17:14 43.43372 5.21929 50 ft 165 kts 134°
2026-05-07 17:14 43.42574 5.23127 649 ft 165 kts 125°
2026-05-07 17:14 43.42107 5.24555 1361 ft 167 kts 103°
2026-05-07 17:14 43.42052 5.26229 1732 ft 187 kts 81°
2026-05-07 17:15 43.42305 5.28087 2043 ft 208 kts 80°
2026-05-07 17:15 43.42580 5.30147 2366 ft 230 kts 80°
2026-05-07 17:15 43.42881 5.32428 2780 ft 255 kts 80°
2026-05-07 17:15 43.43093 5.34053 3212 ft 264 kts 81°
2026-05-07 17:16 43.43117 5.37438 4335 ft 270 kts 93°
2026-05-07 17:16 43.42999 5.40037 5226 ft 273 kts 94°
2026-05-07 17:16 43.42908 5.41801 5828 ft 276 kts 94°
2026-05-07 17:16 43.42766 5.44450 6690 ft 279 kts 95°
2026-05-07 17:17 43.42624 5.47098 7533 ft 283 kts 95°
2026-05-07 17:17 43.42478 5.49850 8371 ft 287 kts 95°
2026-05-07 17:17 43.42338 5.52565 9178 ft 290 kts 94°
2026-05-07 17:17 43.42197 5.55354 9988 ft 294 kts 94°
2026-05-07 17:18 43.42052 5.58227 10480 ft 312 kts 94°
2026-05-07 17:18 43.41897 5.61311 10709 ft 335 kts 94°
2026-05-07 17:18 43.41733 5.64570 11191 ft 347 kts 94°
2026-05-07 17:18 43.41564 5.67901 11889 ft 351 kts 94°
2026-05-07 17:19 43.41393 5.71269 12613 ft 354 kts 94°
2026-05-07 17:19 43.41352 5.74665 13271 ft 358 kts 87°
2026-05-07 17:19 43.41479 5.78107 13925 ft 362 kts 88°
2026-05-07 17:19 43.41604 5.81582 14572 ft 365 kts 88°
2026-05-07 17:20 43.41728 5.85086 15198 ft 369 kts 88°
2026-05-07 17:20 43.41850 5.88630 15806 ft 373 kts 88°
2026-05-07 17:20 43.41972 5.92208 16407 ft 376 kts 88°
2026-05-07 17:20 43.42095 5.95774 16981 ft 380 kts 88°
2026-05-07 17:21 43.42218 5.99420 17549 ft 383 kts 88°
2026-05-07 17:21 43.42340 6.03104 18108 ft 387 kts 88°
2026-05-07 17:21 43.42461 6.06809 18636 ft 390 kts 88°
2026-05-07 17:21 43.42580 6.10562 19147 ft 394 kts 88°
2026-05-07 17:22 43.42698 6.14347 19641 ft 398 kts 88°
2026-05-07 17:22 43.42813 6.18167 20119 ft 401 kts 88°
2026-05-07 17:22 43.42931 6.22022 20598 ft 405 kts 88°
2026-05-07 17:22 43.43037 6.25903 21054 ft 408 kts 91°
2026-05-07 17:23 43.42818 6.29811 21488 ft 411 kts 98°
2026-05-07 17:23 43.42461 6.33728 21930 ft 414 kts 98°
2026-05-07 17:23 43.42103 6.37670 22357 ft 417 kts 98°
2026-05-07 17:23 43.41740 6.41645 22775 ft 420 kts 98°
2026-05-07 17:24 43.41375 6.45655 23168 ft 424 kts 98°
2026-05-07 17:24 43.41014 6.49634 23557 ft 427 kts 98°
2026-05-07 17:24 43.40645 6.53712 23945 ft 430 kts 98°
2026-05-07 17:24 43.40274 6.57806 24317 ft 434 kts 98°
2026-05-07 17:25 43.39896 6.61936 24687 ft 437 kts 98°
2026-05-07 17:25 43.39513 6.66093 25051 ft 439 kts 98°
2026-05-07 17:25 43.39128 6.70275 25400 ft 442 kts 98°
2026-05-07 17:25 43.38735 6.74484 25744 ft 445 kts 98°
2026-05-07 17:26 43.38336 6.78716 26072 ft 448 kts 98°
2026-05-07 17:26 43.38129 6.82995 26389 ft 451 kts 89°
2026-05-07 17:26 43.38447 6.87301 26708 ft 455 kts 79°
2026-05-07 17:26 43.39294 6.91504 27023 ft 458 kts 69°
2026-05-07 17:27 43.40653 6.95470 27329 ft 460 kts 59°
2026-05-07 17:27 43.42431 6.99068 27626 ft 462 kts 53°
2026-05-07 17:27 43.44322 7.02656 27940 ft 465 kts 53°
2026-05-07 17:27 43.46224 7.06276 28229 ft 467 kts 53°
2026-05-07 17:28 43.48126 7.09911 28505 ft 469 kts 53°
2026-05-07 17:28 43.50037 7.13577 28780 ft 472 kts 53°
2026-05-07 17:28 43.51950 7.17259 29050 ft 474 kts 53°
2026-05-07 17:28 43.53874 7.20973 29310 ft 476 kts 54°
2026-05-07 17:29 43.54527 7.22234 29398 ft 476 kts 54°
2026-05-07 17:30 43.63629 7.39821 30543 ft 486 kts 53°
2026-05-07 17:30 43.65591 7.43613 30860 ft 485 kts 53°
2026-05-07 17:30 43.67551 7.47408 31196 ft 484 kts 53°
2026-05-07 17:30 43.69502 7.51195 31531 ft 484 kts 53°
2026-05-07 17:31 43.71446 7.54983 31862 ft 483 kts 53°
2026-05-07 17:31 43.73392 7.58781 32171 ft 482 kts 53°
2026-05-07 17:31 43.75331 7.62566 32499 ft 482 kts 53°
2026-05-07 17:31 43.77266 7.66345 32819 ft 481 kts 53°
2026-05-07 17:32 43.79196 7.70121 33122 ft 480 kts 53°
2026-05-07 17:32 43.81119 7.73889 33429 ft 480 kts 54°
2026-05-07 17:32 43.83043 7.77664 33738 ft 479 kts 54°
2026-05-07 17:32 43.84942 7.81383 34028 ft 478 kts 53°
2026-05-07 17:33 43.86864 7.85148 34331 ft 478 kts 53°
2026-05-07 17:33 43.88780 7.88906 34620 ft 477 kts 53°
2026-05-07 17:33 43.90699 7.92670 34887 ft 477 kts 53°
2026-05-07 17:33 43.92614 7.96424 35126 ft 477 kts 53°
2026-05-07 17:34 43.94526 8.00181 35380 ft 476 kts 54°
2026-05-07 17:34 43.96434 8.03939 35601 ft 477 kts 54°
2026-05-07 17:34 43.98338 8.07700 35831 ft 476 kts 54°
2026-05-07 17:34 44.00244 8.11469 35990 ft 477 kts 54°
2026-05-07 17:35 44.04053 8.19019 36011 ft 477 kts 54°
2026-05-07 17:35 44.07920 8.26505 36002 ft 476 kts 51°
2026-05-07 17:36 44.12038 8.33705 35995 ft 476 kts 49°
2026-05-07 17:36 44.16228 8.40852 36003 ft 476 kts 50°
2026-05-07 17:37 44.20351 8.48076 35996 ft 476 kts 51°
2026-05-07 17:37 44.24397 8.55309 35993 ft 476 kts 51°
2026-05-07 17:38 44.28458 8.62596 35998 ft 476 kts 51°
2026-05-07 17:38 44.32536 8.69874 35994 ft 476 kts 51°
2026-05-07 17:39 44.36615 8.77157 35998 ft 476 kts 51°
2026-05-07 17:39 44.40678 8.84458 36000 ft 476 kts 51°
2026-05-07 17:40 44.44749 8.91790 35996 ft 476 kts 51°
2026-05-07 17:40 44.48780 8.99074 35994 ft 476 kts 51°
2026-05-07 17:41 44.52839 9.06409 35998 ft 476 kts 51°
2026-05-07 17:41 44.56887 9.13750 35992 ft 476 kts 51°
2026-05-07 17:42 44.60928 9.21096 35992 ft 475 kts 51°
2026-05-07 17:42 44.64960 9.28447 35977 ft 475 kts 51°
2026-05-07 17:43 44.68994 9.35812 35973 ft 475 kts 51°
2026-05-07 17:43 44.73019 9.43198 35967 ft 475 kts 51°
2026-05-07 17:44 44.77037 9.50587 35957 ft 475 kts 51°
2026-05-07 17:44 44.81029 9.57930 35951 ft 475 kts 51°
2026-05-07 17:45 44.85041 9.65338 35948 ft 475 kts 51°
2026-05-07 17:45 44.89056 9.72775 35945 ft 476 kts 51°
2026-05-07 17:46 44.93062 9.80200 35944 ft 476 kts 51°
2026-05-07 17:46 44.97065 9.87646 35945 ft 476 kts 51°
2026-05-07 17:47 45.01055 9.95119 35951 ft 476 kts 52°
2026-05-07 17:47 45.05049 10.02591 35954 ft 476 kts 51°
2026-05-07 17:48 45.09048 10.10076 35958 ft 477 kts 52°
2026-05-07 17:48 45.13045 10.17583 35966 ft 477 kts 52°
2026-05-07 17:49 45.17012 10.25070 35971 ft 478 kts 52°
2026-05-07 17:49 45.20997 10.32617 35972 ft 478 kts 52°
2026-05-07 17:50 45.24975 10.40168 35977 ft 477 kts 52°
2026-05-07 17:50 45.28946 10.47720 35983 ft 477 kts 52°
2026-05-07 17:51 45.32918 10.55269 35981 ft 477 kts 52°
2026-05-07 17:51 45.36878 10.62834 35979 ft 477 kts 52°
2026-05-07 17:52 45.40834 10.70412 35981 ft 477 kts 52°
2026-05-07 17:52 45.44780 10.78004 35979 ft 477 kts 52°
2026-05-07 17:53 45.48703 10.85571 35983 ft 477 kts 52°
2026-05-07 17:53 45.52645 10.93176 35980 ft 477 kts 52°
2026-05-07 17:54 45.56592 11.00794 35983 ft 478 kts 52°
2026-05-07 17:54 45.60534 11.08456 35981 ft 478 kts 53°
2026-05-07 17:55 45.64462 11.16119 35867 ft 478 kts 53°
2026-05-07 17:55 45.66425 11.19961 35610 ft 478 kts 53°
2026-05-07 17:55 45.68385 11.23794 35645 ft 478 kts 53°
2026-05-07 17:56 45.70352 11.27637 35859 ft 479 kts 53°
2026-05-07 17:56 45.72319 11.31482 35997 ft 479 kts 53°
2026-05-07 17:56 45.76248 11.39196 36018 ft 478 kts 53°
2026-05-07 17:57 45.79499 11.45597 36025 ft 479 kts 53°
2026-05-07 17:57 45.84083 11.54636 36027 ft 479 kts 53°
2026-05-07 17:58 45.87979 11.62339 36037 ft 479 kts 53°
2026-05-07 17:58 45.91892 11.70106 36033 ft 479 kts 53°
2026-05-07 17:59 45.95791 11.77871 36027 ft 479 kts 53°
2026-05-07 17:59 45.99687 11.85647 36030 ft 479 kts 53°
2026-05-07 18:00 46.03586 11.93443 36036 ft 480 kts 53°
2026-05-07 18:00 46.06819 11.99936 36046 ft 480 kts 53°
2026-05-07 18:01 46.11340 12.09027 36048 ft 480 kts 53°
2026-05-07 18:01 46.15221 12.16860 36056 ft 480 kts 54°
2026-05-07 18:02 46.20403 12.27354 36050 ft 480 kts 54°
2026-05-07 18:03 46.24252 12.35160 36035 ft 480 kts 54°
2026-05-07 18:03 46.28114 12.43032 36030 ft 480 kts 54°
2026-05-07 18:04 46.31968 12.50905 36033 ft 480 kts 54°
2026-05-07 18:04 46.35823 12.58786 36054 ft 480 kts 54°
2026-05-07 18:05 46.39675 12.66692 36036 ft 479 kts 54°
2026-05-07 18:05 46.43519 12.74608 36038 ft 480 kts 54°
2026-05-07 18:06 46.47347 12.82530 36036 ft 479 kts 54°
2026-05-07 18:06 46.51171 12.90446 36036 ft 479 kts 54°
2026-05-07 18:07 46.54988 12.98372 36036 ft 479 kts 54°
2026-05-07 18:07 46.58796 13.06317 36034 ft 479 kts 55°
2026-05-07 18:08 46.62578 13.14230 36036 ft 479 kts 55°
2026-05-07 18:08 46.66377 13.22193 36036 ft 479 kts 55°
2026-05-07 18:09 46.69836 13.30455 36037 ft 478 kts 63°
2026-05-07 18:09 46.72896 13.39061 36036 ft 479 kts 63°
2026-05-07 18:10 46.75958 13.47684 36038 ft 479 kts 63°
2026-05-07 18:10 46.79011 13.56314 36043 ft 478 kts 63°
2026-05-07 18:11 46.82049 13.64953 36044 ft 479 kts 63°
2026-05-07 18:11 46.85092 13.73610 36048 ft 479 kts 63°
2026-05-07 18:12 46.88137 13.82274 36048 ft 479 kts 63°
2026-05-07 18:12 46.91155 13.90900 36046 ft 479 kts 63°
2026-05-07 18:13 46.94178 13.99609 36051 ft 479 kts 63°
2026-05-07 18:13 46.97188 14.08294 36050 ft 479 kts 64°
2026-05-07 18:14 47.00192 14.16990 36047 ft 478 kts 64°
2026-05-07 18:14 47.03193 14.25687 36059 ft 478 kts 64°
2026-05-07 18:15 47.06182 14.34380 36055 ft 477 kts 64°
2026-05-07 18:15 47.09162 14.43087 36055 ft 478 kts 64°
2026-05-07 18:16 47.11792 14.52002 36058 ft 476 kts 76°
2026-05-07 18:16 47.13418 14.61409 35989 ft 476 kts 77°
2026-05-07 18:16 47.14224 14.66120 35736 ft 475 kts 77°
2026-05-07 18:17 47.15030 14.70830 35481 ft 474 kts 77°
2026-05-07 18:17 47.15832 14.75536 34718 ft 479 kts 77°
2026-05-07 18:17 47.16632 14.80243 33882 ft 482 kts 77°
2026-05-07 18:17 47.17450 14.85045 32904 ft 487 kts 78°
2026-05-07 18:18 47.18286 14.89954 31954 ft 490 kts 78°
2026-05-07 18:18 47.19112 14.94806 31338 ft 486 kts 78°
2026-05-07 18:18 47.19915 14.99528 30738 ft 481 kts 78°
2026-05-07 18:18 47.20720 15.04270 30120 ft 476 kts 78°
2026-05-07 18:19 47.21510 15.08972 29508 ft 471 kts 78°
2026-05-07 18:19 47.22286 15.13622 28911 ft 465 kts 78°
2026-05-07 18:19 47.23052 15.18224 28324 ft 460 kts 78°
2026-05-07 18:19 47.23809 15.22785 27732 ft 456 kts 78°
2026-05-07 18:20 47.24558 15.27296 27149 ft 452 kts 78°
2026-05-07 18:20 47.25300 15.31768 26577 ft 447 kts 77°
2026-05-07 18:20 47.26031 15.36191 26012 ft 442 kts 77°
2026-05-07 18:20 47.26751 15.40557 25468 ft 436 kts 77°
2026-05-07 18:21 47.27459 15.44877 24931 ft 431 kts 77°
2026-05-07 18:21 47.28158 15.49147 24408 ft 425 kts 77°
2026-05-07 18:21 47.28846 15.53358 23900 ft 420 kts 77°
2026-05-07 18:21 47.29637 15.57369 23630 ft 409 kts 68°
2026-05-07 18:22 47.31032 15.60930 23530 ft 393 kts 52°
2026-05-07 18:22 47.32190 15.63008 23478 ft 384 kts 50°
2026-05-07 18:22 47.34433 15.66951 23366 ft 379 kts 50°
2026-05-07 18:22 47.36140 15.69937 23278 ft 380 kts 50°
2026-05-07 18:23 47.37846 15.72908 23196 ft 380 kts 50°
2026-05-07 18:23 47.39554 15.75881 23112 ft 379 kts 50°
2026-05-07 18:23 47.41255 15.78846 23038 ft 378 kts 50°
2026-05-07 18:23 47.42949 15.81802 22945 ft 377 kts 50°
2026-05-07 18:24 47.44642 15.84764 22861 ft 377 kts 50°
2026-05-07 18:24 47.46381 15.87653 22778 ft 376 kts 42°
2026-05-07 18:24 47.48500 15.90018 22583 ft 391 kts 35°
2026-05-07 18:24 47.50751 15.92336 22240 ft 396 kts 34°
2026-05-07 18:25 47.53019 15.94647 21890 ft 395 kts 34°
2026-05-07 18:25 47.55287 15.96949 21539 ft 394 kts 34°
2026-05-07 18:25 47.57537 15.99235 21147 ft 391 kts 34°
2026-05-07 18:25 47.59774 16.01510 20698 ft 388 kts 34°
2026-05-07 18:26 47.61964 16.03745 20254 ft 386 kts 34°
2026-05-07 18:26 47.64165 16.06000 19804 ft 383 kts 34°
2026-05-07 18:26 47.66350 16.08246 19353 ft 380 kts 34°
2026-05-07 18:26 47.68515 16.10473 18901 ft 378 kts 34°
2026-05-07 18:27 47.70693 16.12716 18446 ft 375 kts 34°
2026-05-07 18:27 47.72799 16.14888 17993 ft 372 kts 34°
2026-05-07 18:27 47.74920 16.17074 17546 ft 369 kts 34°
2026-05-07 18:27 47.77026 16.19242 17099 ft 367 kts 34°
2026-05-07 18:28 47.79117 16.21393 16647 ft 364 kts 34°
2026-05-07 18:28 47.81191 16.23535 16197 ft 362 kts 34°
2026-05-07 18:28 47.83246 16.25665 15746 ft 359 kts 34°
2026-05-07 18:28 47.85289 16.27788 15295 ft 357 kts 34°
2026-05-07 18:29 47.87317 16.29894 14838 ft 354 kts 34°
2026-05-07 18:29 47.89339 16.31991 14390 ft 352 kts 34°
2026-05-07 18:29 47.91348 16.34076 13944 ft 350 kts 35°
2026-05-07 18:29 47.93341 16.36148 13490 ft 348 kts 35°
2026-05-07 18:30 47.95321 16.38207 13026 ft 346 kts 35°
2026-05-07 18:30 47.97292 16.40258 12586 ft 344 kts 35°
2026-05-07 18:30 47.99243 16.42294 12135 ft 341 kts 35°
2026-05-07 18:30 48.01182 16.44316 11759 ft 336 kts 35°
2026-05-07 18:31 48.03084 16.46303 11379 ft 332 kts 35°
2026-05-07 18:31 48.04971 16.48277 10952 ft 330 kts 35°
2026-05-07 18:31 48.06842 16.50238 10511 ft 328 kts 35°
2026-05-07 18:31 48.08705 16.52190 10061 ft 325 kts 35°
2026-05-07 18:32 48.10548 16.54122 9641 ft 322 kts 35°
2026-05-07 18:32 48.12377 16.56044 9176 ft 320 kts 34°
2026-05-07 18:32 48.14194 16.57961 8709 ft 320 kts 35°
2026-05-07 18:32 48.16005 16.59874 8266 ft 316 kts 34°
2026-05-07 18:33 48.17802 16.61761 7785 ft 316 kts 34°
2026-05-07 18:33 48.19681 16.63451 7382 ft 313 kts 25°
2026-05-07 18:33 48.21722 16.64528 6946 ft 310 kts 13°
2026-05-07 18:33 48.23851 16.64967 6499 ft 309 kts
2026-05-07 18:34 48.25953 16.64770 6141 ft 304 kts 350°
2026-05-07 18:34 48.27964 16.64034 5850 ft 288 kts 344°
2026-05-07 18:34 48.29855 16.63233 5573 ft 269 kts 343°
2026-05-07 18:34 48.31591 16.62495 5302 ft 256 kts 343°
2026-05-07 18:35 48.33222 16.61589 5019 ft 240 kts 326°
2026-05-07 18:35 48.34301 16.59793 4759 ft 236 kts 294°
2026-05-07 18:35 48.34553 16.57399 4557 ft 229 kts 260°
2026-05-07 18:35 48.33915 16.55311 4414 ft 222 kts 226°
2026-05-07 18:36 48.32646 16.54091 4264 ft 216 kts 200°
2026-05-07 18:36 48.31239 16.53413 4105 ft 211 kts 196°
2026-05-07 18:36 48.29827 16.52813 3905 ft 208 kts 195°
2026-05-07 18:36 48.28439 16.52234 3713 ft 206 kts 195°
2026-05-07 18:37 48.27062 16.51735 3551 ft 201 kts 184°
2026-05-07 18:37 48.25698 16.51979 3365 ft 199 kts 165°
2026-05-07 18:37 48.24371 16.52549 3133 ft 196 kts 164°
2026-05-07 18:37 48.23073 16.53106 2865 ft 191 kts 165°
2026-05-07 18:38 48.21803 16.53649 2607 ft 188 kts 165°
2026-05-07 18:38 48.20552 16.54181 2356 ft 185 kts 165°
2026-05-07 18:38 48.19332 16.54698 2126 ft 176 kts 165°
2026-05-07 18:38 48.18198 16.55180 1905 ft 161 kts 166°
2026-05-07 18:39 48.17175 16.55615 1691 ft 148 kts 166°
2026-05-07 18:39 48.16211 16.56023 1492 ft 143 kts 167°
2026-05-07 18:39 48.15261 16.56425 1303 ft 141 kts 167°
2026-05-07 18:39 48.14335 16.56817 1119 ft 140 kts 166°
2026-05-07 18:40 48.13401 16.57213 943 ft 139 kts 166°
2026-05-07 18:40 48.12472 16.57607 754 ft 139 kts 166°
2026-05-07 18:40 48.11548 16.58000 612 ft 133 kts 166°
2026-05-07 18:40 48.10892 16.58279 615 ft 55 kts 165°
2026-05-07 18:41 48.10642 16.58256 609 ft 30 kts 191°
2026-05-07 18:41 48.10524 16.58213 614 ft 13 kts 188°
2026-05-07 18:41 48.10510 16.58210 609 ft 0 kts 190°
2026-05-07 18:41 48.10507 16.58208 617 ft 2 kts 200°
2026-05-07 18:42 48.10500 16.58185 620 ft 4 kts 263°
2026-05-07 18:42 48.10523 16.58148 625 ft 7 kts 347°
2026-05-07 18:42 48.10583 16.58128 609 ft 11 kts 346°
2026-05-07 18:42 48.10670 16.58092 622 ft 15 kts 344°
2026-05-07 18:43 48.10786 16.58043 618 ft 19 kts 344°
2026-05-07 18:43 48.10918 16.57987 609 ft 21 kts 344°
2026-05-07 18:43 48.11063 16.57925 609 ft 23 kts 344°
2026-05-07 18:43 48.11220 16.57860 609 ft 24 kts 345°
2026-05-07 18:44 48.11384 16.57791 609 ft 25 kts 343°
2026-05-07 18:44 48.11483 16.57748 611 ft 22 kts 343°
2026-05-07 18:44 48.11635 16.57684 616 ft 21 kts 344°
2026-05-07 18:44 48.11733 16.57641 620 ft 13 kts 345°
2026-05-07 18:45 48.11816 16.57604 609 ft 11 kts 332°
2026-05-07 18:45 48.11828 16.57508 620 ft 10 kts 253°
2026-05-07 18:45 48.11810 16.57416 621 ft 9 kts 253°
2026-05-07 18:45 48.11814 16.57339 615 ft 7 kts 294°
2026-05-07 18:46 48.11833 16.57280 622 ft 7 kts 296°
2026-05-07 18:46 48.11856 16.57207 617 ft 7 kts 289°
2026-05-07 18:46 48.11846 16.57175 619 ft 3 kts 206°
2026-05-07 18:46 48.11826 16.57161 612 ft 5 kts 205°
2026-05-07 18:47 48.11799 16.57141 615 ft 4 kts 206°
2026-05-07 18:47 48.11780 16.57127 609 ft 3 kts 207°
2026-05-07 18:47 48.11766 16.57116 617 ft 2 kts 206°
2026-05-07 18:47 48.11760 16.57112 609 ft 0 kts 206°